GEFSSGP_con_cape1000_006.txt.gz
Probability
0 0 0 0 0 0 0 0 0 0 0 0 0 0 0 0 0 0 3 61 84 87 100 100 100 100 100 100 100 100 100 100 100 100 100 100 100 100 100 100 100 100 100 100 100 100 100 100 100
0 0 0 0 0 0 0 0 0 0 0 0 10 23 29 55 19 45 65 84 77 100 100 100 100 100 100 100 100 100 100 100 100 100 100 100 100 100 100 100 100 100 100 100 100 100 100 100 100
0 0 0 0 0 0 0 0 0 0 0 19 55 77 87 94 84 74 68 87 97 100 100 100 100 100 100 100 100 100 100 100 100 100 100 100 100 100 100 100 100 100 100 100 100 100 100 100 97
0 0 0 0 0 0 0 0 0 0 3 6 16 26 52 94 94 77 81 97 100 100 100 100 100 100 100 100 100 100 100 100 100 100 100 100 100 100 100 100 100 100 100 100 100 100 100 94 84
0 0 0 0 0 0 0 0 0 0 0 0 6 16 84 87 81 61 87 97 100 100 100 100 100 100 100 100 100 100 100 100 100 100 100 100 100 100 100 100 100 100 100 100 100 97 71 45 29
0 0 0 0 0 0 0 0 0 0 0 0 3 39 84 77 77 81 97 97 100 100 97 97 97 97 100 100 100 100 100 100 100 100 100 100 100 100 100 100 100 97 100 81 52 23 10 6 6
0 0 0 0 0 0 0 0 0 0 0 0 3 71 84 81 81 87 84 90 90 97 97 97 97 97 97 100 100 100 100 100 100 100 100 100 100 97 97 97 97 97 84 55 26 0 0 0 0
0 0 0 0 0 0 0 0 0 0 0 0 16 84 90 90 100 87 87 81 77 84 84 97 97 97 97 100 100 100 100 100 100 100 100 100 100 97 97 84 87 97 87 58 23 3 0 0 0
0 0 0 0 0 0 0 0 0 0 0 0 0 58 90 100 97 87 74 68 74 77 77 81 97 97 100 100 100 100 100 100 100 100 100 100 52 39 68 74 90 84 81 39 10 0 0 0 0
0 0 0 0 0 0 0 0 0 0 0 3 45 100 100 97 94 77 61 61 61 58 61 77 90 97 100 100 100 100 100 100 94 94 94 45 10 16 77 61 97 81 74 26 0 0 0 0 0
0 0 0 0 0 0 0 0 0 0 0 3 90 100 100 94 81 58 55 45 19 10 32 65 90 97 94 100 100 97 97 90 87 81 32 10 10 3 6 0 3 3 3 0 0 0 0 0 0
0 0 0 0 0 0 0 0 0 0 0 3 94 100 100 97 77 52 42 26 10 13 29 71 81 52 42 81 81 55 45 45 45 35 39 23 26 16 3 0 0 0 0 0 0 0 0 0 0
0 0 0 0 0 0 0 0 0 0 0 48 100 100 97 94 77 71 48 29 32 32 39 58 65 16 13 29 39 16 16 19 16 26 19 13 26 16 0 0 0 0 0 0 0 0 0 0 0
0 0 0 0 0 0 0 0 0 0 13 71 100 100 100 94 77 74 55 45 32 29 29 42 35 6 0 0 6 6 6 6 0 0 0 0 0 0 0 0 0 0 0 0 0 0 0 0 0
0 0 0 0 0 0 0 0 0 6 29 77 100 100 100 90 81 71 48 26 10 0 3 13 13 0 0 0 0 0 0 0 0 0 0 0 0 0 0 0 0 0 0 0 0 0 0 0 0
0 0 0 0 0 0 0 0 0 6 32 68 74 90 97 90 68 58 13 0 0 0 0 0 0 0 0 0 0 0 0 0 0 0 0 0 0 0 0 0 0 0 0 0 0 0 0 0 0
0 0 0 0 0 0 0 0 0 3 19 45 52 68 61 52 35 6 0 0 0 0 0 0 0 0 0 0 0 0 0 0 0 0 0 0 0 0 0 0 0 0 0 0 0 0 0 0 0
0 0 0 0 0 0 0 0 0 0 3 26 32 35 35 29 0 0 0 0 0 0 0 0 0 0 0 0 0 0 0 0 0 0 0 0 0 0 0 0 0 0 0 0 0 0 0 0 0
0 0 0 0 0 0 0 0 0 0 0 0 6 13 16 6 0 0 0 0 0 0 0 0 0 0 0 0 0 0 0 0 0 0 0 0 0 0 0 0 0 0 0 0 0 0 0 0 0
0 0 0 0 0 0 0 0 0 0 0 0 0 3 3 0 0 0 0 0 0 0 0 0 0 0 0 0 0 0 0 0 0 0 0 0 0 0 0 0 0 0 0 0 0 0 0 0 0
0 0 0 0 0 0 0 0 0 0 0 0 0 0 0 0 0 0 0 0 0 0 0 0 0 0 0 0 0 0 0 0 0 0 0 0 0 0 0 0 0 0 0 0 0 0 0 0 0
0 0 0 0 0 0 0 0 0 0 0 0 0 0 0 3 0 0 0 0 0 0 0 0 0 0 0 0 0 0 0 0 0 0 0 0 0 0 0 0 0 0 0 0 0 0 0 0 0
0 0 0 0 0 0 0 0 0 0 0 0 0 0 0 0 0 0 0 0 0 0 0 0 0 0 0 0 0 0 0 0 0 0 0 0 0 0 0 0 0 0 0 0 0 0 0 0 0
0 0 0 0 0 0 0 0 0 0 0 0 0 0 0 0 0 0 0 0 0 0 0 0 0 0 0 0 0 0 0 0 0 0 0 0 0 0 0 0 0 0 0 0 0 0 0 0 0
0 0 0 0 0 0 0 0 0 0 0 0 0 0 3 0 0 0 0 0 0 0 0 0 0 0 0 0 0 0 0 0 0 0 0 0 0 0 0 0 0 0 0 0 0 0 0 0 0
0 0 0 0 0 0 0 0 0 0 0 0 0 6 0 0 0 0 0 0 0 0 0 0 0 0 0 0 0 0 0 0 0 0 0 0 0 0 0 0 0 0 0 0 0 0 0 0 0
0 0 0 0 0 0 0 0 0 0 0 0 3 3 0 0 0 0 0 0 0 0 0 0 0 0 0 0 0 0 0 0 0 0 0 0 0 0 0 0 0 0 0 0 0 0 0 0 0
0 0 0 0 0 0 0 0 0 0 0 0 0 0 0 0 0 0 0 0 0 0 0 0 0 0 0 0 0 0 0 0 0 0 0 0 0 0 0 0 0 0 0 0 0 0 0 0 0
0 0 0 0 0 0 0 0 0 0 0 0 0 0 0 0 0 0 0 0 0 0 0 0 0 0 0 0 0 0 0 0 0 0 0 0 0 0 0 0 0 0 0 0 0 0 0 0 0
0 0 0 0 0 0 0 0 0 0 0 0 0 0 0 0 0 0 0 0 0 0 0 0 0 0 0 0 0 0 0 0 0 0 0 0 0 0 0 0 0 0 0 0 0 0 0 0 0

GEFSSGP_con_cape1000_012.txt.gz
Probability
0 0 0 0 0 0 0 0 0 0 0 0 0 0 0 0 0 6 90 87 71 23 77 100 100 100 100 100 100 100 100 100 100 100 100 100 100 100 100 100 100 97 100 100 100 100 100 100 97
0 0 0 0 0 0 0 0 0 0 0 3 19 26 10 23 84 90 100 100 94 65 94 100 100 100 100 100 100 100 100 100 100 100 100 100 100 100 100 100 100 94 97 97 94 97 97 94 90
0 0 0 0 0 0 0 0 0 6 13 23 29 16 6 74 100 97 100 97 100 94 87 100 100 100 100 100 100 100 100 100 100 100 100 100 100 100 100 97 87 77 84 77 61 71 87 94 84
0 0 0 0 0 0 0 0 0 10 29 32 13 6 55 100 100 100 97 97 94 87 77 100 100 100 100 100 100 100 100 100 100 100 100 100 100 100 94 84 71 55 65 71 58 68 94 77 55
0 0 0 0 0 0 0 0 0 3 19 32 10 0 74 100 100 100 90 48 71 55 45 97 100 100 100 100 100 100 100 100 100 100 100 100 100 100 100 84 35 42 58 71 87 68 61 26 19
0 0 0 0 0 0 0 0 0 0 6 19 10 0 61 100 100 100 68 58 55 48 39 100 100 100 100 100 100 100 100 100 100 100 100 100 100 100 97 94 74 68 74 65 35 13 6 0 0
0 0 0 0 0 0 0 0 0 0 3 6 10 6 61 100 100 100 74 71 71 61 55 84 100 100 100 100 100 100 100 100 100 100 100 100 100 100 90 90 87 74 65 39 26 3 0 0 0
0 0 0 0 0 0 0 0 0 0 0 13 32 10 32 100 100 100 94 97 94 90 94 100 97 97 100 100 100 100 100 100 100 100 100 100 94 84 77 94 90 65 52 32 19 3 0 0 0
0 0 0 0 0 0 0 0 0 0 26 74 55 35 48 100 100 100 100 97 97 100 100 100 97 97 100 100 100 100 100 100 100 100 100 100 90 84 77 81 71 58 45 16 6 0 0 0 0
0 0 0 0 0 0 0 0 0 6 32 87 84 90 100 100 100 100 100 97 97 100 100 100 97 97 97 87 100 100 100 100 100 100 100 97 100 90 81 71 90 74 39 16 0 0 0 0 0
0 0 0 0 0 0 0 0 3 3 6 23 68 94 100 100 100 100 94 100 100 97 94 90 97 90 90 87 97 94 68 100 97 100 100 100 100 97 61 26 23 16 3 0 0 0 0 0 0
0 0 0 0 0 0 0 0 0 0 0 0 26 94 100 100 100 94 94 97 100 97 90 90 94 97 94 81 74 77 58 84 65 97 97 97 97 81 39 10 3 3 0 0 0 0 0 0 0
0 0 0 0 0 0 0 0 0 0 0 3 42 100 100 90 97 97 97 97 100 97 90 90 94 100 100 100 84 61 81 71 100 97 97 100 81 65 58 42 61 26 3 3 3 0 0 0 0
0 0 0 0 0 0 0 0 0 0 3 16 84 100 100 90 94 97 97 97 97 97 94 94 94 100 100 100 100 97 84 100 81 90 81 74 61 81 71 77 77 13 3 0 3 0 0 0 0
0 0 0 0 0 0 0 0 0 0 6 35 71 97 100 94 97 100 100 100 97 90 90 94 100 100 100 100 100 100 90 97 94 84 77 58 39 52 39 19 13 6 6 6 6 0 0 3 0
0 0 0 0 0 0 0 0 0 0 6 26 58 87 100 100 100 100 100 90 87 84 90 87 87 100 100 100 100 94 84 90 77 61 45 19 13 3 10 0 0 0 0 0 0 0 0 3 0
0 0 0 0 0 0 0 0 0 0 3 16 52 87 100 100 100 97 90 87 81 87 87 90 97 100 100 97 94 74 65 55 35 19 10 3 0 0 0 0 3 0 0 0 0 0 3 3 3
0 0 0 0 0 0 0 0 0 0 0 10 48 87 100 100 94 90 81 74 71 84 87 94 97 100 97 74 68 39 16 6 6 0 0 0 0 0 0 0 0 0 0 0 0 0 0 0 0
0 0 0 0 0 0 0 0 0 0 0 0 32 71 97 100 94 77 68 61 74 74 87 94 87 87 74 65 42 16 6 0 0 0 0 0 0 0 0 0 0 0 0 0 0 0 0 0 0
0 0 0 0 0 0 0 0 0 0 0 0 23 71 94 100 77 68 58 65 65 71 71 87 77 58 58 55 23 0 0 0 0 0 0 0 0 0 0 0 0 0 0 0 0 0 0 0 0
0 0 0 0 0 0 0 0 0 0 0 0 10 42 90 100 94 71 48 42 42 42 32 26 35 39 26 13 0 0 0 0 0 0 0 0 0 0 0 0 0 0 0 0 0 0 0 0 0
0 0 0 0 0 0 0 0 0 0 0 0 3 42 87 100 97 71 48 29 26 23 23 23 16 19 10 3 0 0 0 0 0 0 0 0 0 0 0 0 0 0 0 0 0 0 0 0 0
0 0 0 0 0 0 0 0 0 0 0 0 13 45 87 100 94 65 32 19 3 0 6 6 3 3 0 0 0 0 0 0 0 0 0 0 0 0 0 0 0 0 0 0 0 0 0 0 0
0 0 0 0 0 0 0 0 0 0 0 0 3 65 90 100 84 42 19 0 0 0 0 0 0 0 0 0 0 0 0 0 0 0 0 0 0 0 0 0 0 0 0 0 0 0 0 0 0
0 0 0 0 0 0 0 0 0 0 0 0 3 74 90 84 48 13 0 0 0 0 0 0 0 0 0 0 0 0 0 0 0 0 0 0 0 0 0 0 0 0 0 0 0 0 0 0 0
0 0 0 0 0 0 0 0 0 0 0 0 6 77 100 65 23 0 0 0 0 0 0 0 0 0 0 0 0 0 0 0 0 0 0 0 0 0 0 0 0 0 0 0 0 0 0 0 0
0 0 0 0 0 0 0 0 0 0 0 0 6 81 94 61 10 0 0 0 0 0 0 0 0 0 0 0 0 0 0 0 0 0 0 0 0 0 0 0 0 0 0 0 0 0 0 0 0
0 0 0 0 0 0 0 0 0 0 0 0 10 77 77 45 3 0 0 0 0 0 0 0 0 0 0 0 0 0 0 0 0 0 0 0 0 0 0 0 0 0 0 0 0 0 0 0 0
0 0 0 0 0 0 0 0 0 0 0 3 29 87 74 32 0 0 0 0 0 0 0 0 0 0 0 0 0 0 0 0 0 0 0 0 0 0 0 0 0 0 0 0 0 0 0 0 0
0 0 0 0 0 0 0 0 0 0 0 6 35 94 71 6 0 0 0 0 0 0 0 0 0 0 0 0 0 0 0 0 0 0 0 0 0 0 0 0 0 0 0 0 0 0 0 0 0

GEFSSGP_con_cape1000_018.txt.gz
Probability
0 0 0 0 0 0 0 0 0 0 0 0 0 0 0 23 71 87 71 87 100 97 100 100 100 100 100 100 100 100 100 100 100 100 100 100 100 100 100 97 97 97 94 97 94 97 100 81 42
0 0 0 0 0 0 0 0 0 0 0 0 0 0 0 10 55 81 97 97 100 100 97 100 100 100 100 100 100 100 100 100 100 100 100 100 100 100 100 97 87 81 77 77 84 94 87 71 42
0 0 0 0 0 0 0 0 0 0 0 0 0 0 0 13 68 100 100 90 100 100 100 100 100 100 100 100 100 100 100 100 100 100 100 100 100 100 97 84 74 74 77 81 71 71 81 71 42
0 0 0 0 0 0 0 0 0 0 0 0 0 0 6 16 68 100 100 97 100 100 100 100 100 100 100 100 100 100 100 100 100 100 100 100 97 94 77 68 48 61 71 55 61 71 71 58 26
0 0 0 0 0 0 0 0 0 0 0 0 0 3 35 45 84 90 100 97 100 100 100 100 100 100 100 100 100 100 100 100 100 100 97 97 97 84 65 71 65 68 74 84 81 71 48 23 10
0 0 0 0 0 0 0 0 0 0 0 0 0 23 42 48 71 77 87 97 94 100 100 100 100 100 100 100 100 100 100 100 100 100 100 100 100 97 97 90 77 71 74 71 42 26 13 6 0
0 0 0 0 0 0 0 0 0 0 0 0 0 19 42 52 65 71 77 94 87 100 100 100 100 100 100 100 100 100 100 100 100 100 100 100 100 100 100 90 74 77 52 29 13 10 0 0 0
0 0 0 0 0 0 0 0 0 0 0 0 0 6 42 74 65 71 77 81 87 100 100 100 100 100 100 100 100 100 100 100 100 100 100 100 100 100 100 97 84 65 39 26 3 6 3 0 0
0 0 0 0 0 0 0 0 0 0 0 0 0 13 48 65 58 71 84 90 90 100 100 100 100 100 100 100 100 100 100 100 100 100 100 100 100 100 100 100 94 81 55 26 19 13 6 0 0
0 0 0 0 0 0 0 0 0 0 0 0 19 42 65 65 71 71 77 97 94 97 100 100 100 100 100 100 100 100 100 100 100 100 100 100 100 100 100 100 97 84 74 39 19 16 13 0 0
0 0 0 0 0 0 0 0 0 0 0 0 16 48 61 71 71 61 77 97 97 100 100 97 100 100 100 100 100 100 100 100 100 100 100 100 100 100 100 68 84 81 68 23 13 16 0 0 0
0 0 0 0 0 0 0 0 0 0 0 0 3 42 55 58 55 52 58 94 97 100 100 100 100 100 100 100 100 100 100 100 100 100 100 100 100 100 94 97 71 74 45 35 23 42 3 0 0
0 0 0 0 0 0 0 0 0 0 0 0 3 23 42 48 45 45 61 94 97 100 100 100 100 100 100 100 100 100 100 100 100 100 100 100 100 100 97 94 97 87 71 35 68 42 39 3 6
0 0 0 0 0 0 0 0 0 0 0 0 3 23 32 42 35 39 68 90 100 100 100 100 100 100 100 100 100 100 100 100 100 100 100 97 100 97 100 100 100 97 81 71 71 39 42 23 23
0 0 0 0 0 0 0 0 0 0 0 0 0 16 29 39 29 48 71 97 100 100 100 100 100 100 100 100 100 100 100 100 100 100 100 94 97 97 94 90 84 74 55 32 48 23 32 26 6
0 0 0 0 0 0 0 0 0 0 0 0 0 3 16 45 32 48 87 94 100 100 100 100 100 100 100 100 100 100 100 100 100 100 97 87 74 65 74 77 45 32 29 29 32 23 10 6 0
0 0 0 0 0 0 0 0 0 0 0 0 0 3 3 35 26 68 87 94 100 100 100 100 100 100 100 100 100 100 100 97 90 84 81 65 32 10 35 32 26 13 16 10 0 0 0 0 0
0 0 0 0 0 0 0 0 0 0 0 0 0 3 3 16 48 77 90 90 100 100 100 100 100 100 100 100 97 90 87 81 74 65 55 39 16 6 13 19 10 3 0 0 0 0 0 0 0
0 0 0 0 0 0 0 0 0 0 0 0 0 0 3 13 52 90 97 97 97 100 100 100 100 100 100 94 87 81 74 58 42 26 16 10 3 0 0 0 3 0 0 0 0 0 0 0 0
0 0 0 0 0 0 0 0 0 0 0 0 0 0 6 13 68 94 97 97 97 100 100 100 100 100 94 90 87 84 55 26 6 6 6 0 0 0 0 0 0 0 0 0 0 0 0 0 0
0 0 0 0 0 0 0 0 0 0 0 0 0 0 3 10 68 100 94 100 97 97 100 100 100 100 97 94 65 23 10 3 0 0 0 0 0 0 0 0 0 0 0 0 0 0 0 0 0
0 0 0 0 0 0 0 0 0 0 0 0 0 0 3 10 61 90 100 100 97 97 100 100 100 100 90 65 29 10 6 3 0 0 0 0 0 0 0 0 0 0 0 0 0 0 0 0 0
0 0 0 0 0 0 0 0 0 0 0 0 0 0 0 6 48 87 100 100 100 100 100 97 84 74 55 39 35 26 6 6 0 0 0 0 0 0 0 0 0 0 0 0 0 0 0 0 0
0 0 0 0 0 0 0 0 0 0 0 0 0 0 3 10 58 87 100 100 90 74 58 55 39 39 35 23 13 6 3 0 0 0 0 0 0 0 0 0 0 0 0 0 0 0 0 0 0
0 0 0 0 0 0 0 0 0 0 0 0 0 3 6 32 81 97 90 68 42 39 26 26 13 13 10 3 0 0 0 0 0 0 0 0 0 0 0 0 0 0 0 0 0 0 0 0 0
0 0 0 0 0 0 0 0 0 0 0 0 0 6 16 55 90 87 71 35 32 19 10 3 0 0 0 0 0 0 0 0 0 0 0 0 0 0 0 0 0 0 0 0 0 0 0 0 0
0 0 0 0 0 0 0 0 0 0 0 0 0 10 26 74 84 74 42 19 3 3 0 0 0 0 0 0 0 0 0 0 0 0 0 0 0 0 0 0 0 0 0 0 0 0 0 0 0
0 0 0 0 0 0 0 0 0 0 0 0 0 10 58 81 74 39 10 3 3 0 0 0 0 0 0 0 0 0 0 0 0 0 0 0 0 0 0 0 0 0 0 0 0 0 0 0 0
0 0 0 0 0 0 0 0 0 0 0 0 0 16 77 77 45 23 3 0 0 0 0 0 0 0 0 0 0 0 0 0 0 0 0 0 0 0 0 0 0 0 0 0 0 0 0 0 0
0 0 0 0 0 0 0 0 0 0 0 0 3 32 81 71 32 10 0 0 0 0 0 0 0 0 0 0 0 0 0 0 0 0 0 0 0 0 0 0 0 0 0 0 0 0 0 0 0

GEFSSGP_con_cape1000_024.txt.gz
Probability
0 0 0 0 0 0 0 0 0 0 0 0 3 32 42 39 16 10 0 0 35 100 100 100 100 100 100 100 100 100 100 100 100 100 100 100 100 100 100 100 100 100 100 100 100 97 74 58 45
0 0 0 0 0 0 0 0 0 0 0 3 26 52 77 90 90 55 13 13 77 100 100 100 100 100 100 100 100 100 100 100 100 100 100 100 100 100 100 100 100 100 100 100 100 90 68 58 32
0 0 0 0 0 0 0 0 0 0 0 0 3 26 87 97 97 81 39 45 71 100 100 100 100 100 100 100 100 100 100 100 100 100 100 100 100 100 100 100 100 100 100 100 97 94 81 68 42
0 0 0 0 0 0 0 0 0 0 0 0 13 32 74 100 100 97 32 23 45 94 100 100 100 100 100 100 100 100 100 100 100 100 100 100 100 100 100 100 100 100 100 100 94 94 84 61 42
0 0 0 0 0 0 0 0 0 0 0 0 48 71 97 100 100 74 23 19 39 90 100 100 100 100 100 100 100 100 100 100 100 100 100 100 100 100 100 100 100 100 97 97 97 94 74 61 39
0 0 0 0 0 0 0 0 0 0 0 23 61 65 87 97 100 94 52 35 39 94 100 100 100 100 100 100 100 100 100 100 100 100 100 100 100 100 100 100 100 97 100 94 87 74 58 42 35
0 0 0 0 0 0 0 0 0 0 0 13 42 58 71 87 100 97 94 84 65 97 100 100 100 100 100 100 100 100 100 100 100 100 100 100 100 100 100 100 100 100 97 84 74 71 52 42 29
0 0 0 0 0 0 0 0 0 0 0 6 32 48 58 68 100 100 97 100 94 100 100 100 100 100 100 100 100 100 100 100 100 100 100 100 100 100 100 100 97 94 90 77 71 55 39 32 23
0 0 0 0 0 0 0 0 0 0 0 0 23 35 58 81 94 100 100 100 100 97 100 100 100 100 100 100 100 100 100 100 100 100 100 100 100 100 100 97 97 94 94 77 65 52 48 39 23
0 0 0 0 0 0 0 0 0 0 3 23 35 48 52 81 94 97 100 97 100 100 100 100 100 100 100 100 100 100 100 100 97 100 100 90 35 32 84 100 97 97 90 87 81 65 58 16 0
0 0 0 0 0 0 0 0 0 0 10 19 45 48 55 52 77 94 100 94 94 97 100 100 100 100 100 100 100 97 97 100 81 71 81 61 29 19 39 52 90 90 81 48 26 26 13 3 0
0 0 0 0 0 0 0 0 0 6 6 19 45 48 52 42 55 84 90 94 94 97 100 100 100 100 100 100 100 97 90 74 58 48 29 13 10 16 13 0 3 16 10 0 0 0 0 0 0
0 0 0 0 0 0 0 0 0 0 10 26 42 45 48 45 39 71 84 90 97 97 100 100 100 100 100 94 90 100 94 65 52 68 52 23 23 16 10 10 0 3 0 0 0 0 0 0 0
0 0 0 0 0 0 0 0 0 6 10 29 29 39 29 32 42 45 74 87 94 97 100 100 100 100 97 94 97 100 100 84 68 58 61 45 16 10 3 3 0 0 0 0 0 0 0 0 0
0 0 0 0 0 0 0 0 0 6 19 26 26 26 26 26 39 55 77 84 87 90 97 100 97 94 90 90 90 100 97 94 61 48 29 32 10 10 3 0 0 0 0 0 0 0 0 0 0
0 0 0 0 0 0 0 0 0 0 10 13 29 26 29 26 35 52 77 81 77 81 90 100 94 81 61 55 52 84 77 58 39 19 6 6 6 0 0 0 0 0 0 0 0 0 0 0 0
0 0 0 0 0 0 0 0 0 0 3 6 19 29 32 32 35 48 68 74 77 77 90 90 81 58 29 23 16 35 42 42 19 6 0 3 0 0 0 0 0 0 0 0 0 0 0 0 0
0 0 0 0 0 0 0 0 0 0 3 3 6 23 32 35 32 42 74 77 81 74 81 94 74 45 32 23 19 23 23 13 3 3 0 0 0 0 0 0 0 0 0 0 0 0 0 0 0
0 0 0 0 0 0 0 0 0 0 0 0 6 6 16 29 29 35 68 68 81 77 84 84 74 61 39 42 52 29 16 0 0 0 0 0 0 0 0 0 0 0 0 0 0 0 0 0 0
0 0 0 0 0 0 0 0 0 0 0 0 0 3 6 16 29 45 61 74 84 81 84 87 81 77 55 45 26 16 0 0 0 0 0 0 0 0 0 0 0 0 0 0 0 0 0 0 0
0 0 0 0 0 0 0 0 0 0 0 0 0 0 6 13 26 39 68 81 74 74 81 84 74 77 48 23 13 0 0 0 0 0 0 0 0 0 0 0 0 0 0 0 0 0 0 0 0
0 0 0 0 0 0 0 0 0 0 0 0 0 0 3 23 26 45 74 77 74 84 81 68 74 45 29 19 10 0 0 0 0 0 0 0 0 0 0 0 0 0 0 0 0 0 0 0 0
0 0 0 0 0 0 0 0 0 0 0 0 0 0 0 19 35 61 77 77 81 71 65 61 48 32 19 6 0 0 0 0 0 0 0 0 0 0 0 0 0 0 0 0 0 0 0 0 0
0 0 0 0 0 0 0 0 0 0 0 0 3 6 6 26 55 74 81 87 77 71 45 26 19 13 3 3 0 0 0 0 0 0 0 0 0 0 0 0 0 0 0 0 0 0 0 0 0
0 0 0 0 0 0 0 0 0 0 3 6 16 32 45 65 84 87 84 81 65 45 23 13 3 0 0 0 0 0 0 0 0 0 0 0 0 0 0 0 0 0 0 0 0 0 0 0 0
0 0 0 0 0 0 0 0 0 0 13 29 55 65 77 81 90 81 77 55 29 13 10 6 0 0 0 0 0 0 0 0 0 0 0 0 0 0 0 0 0 0 0 0 0 0 0 0 0
0 0 0 0 0 0 0 0 0 0 23 61 74 84 81 81 68 55 39 16 10 3 3 0 0 0 0 0 0 0 0 0 0 0 0 0 0 0 0 0 0 0 0 0 0 0 0 0 0
0 0 0 0 0 0 0 0 0 0 29 61 74 74 68 45 42 19 3 0 0 0 0 0 0 0 0 0 0 0 0 0 0 0 0 0 0 0 0 0 0 0 0 0 0 0 0 0 0
0 0 0 0 0 0 0 0 0 0 26 58 68 55 32 16 6 3 0 0 0 0 0 0 0 0 0 0 0 0 0 0 0 0 0 0 0 0 0 0 0 0 0 0 0 0 0 0 0
0 0 0 0 0 0 0 0 3 19 29 61 55 29 6 0 0 0 0 0 0 0 0 0 0 0 0 0 0 0 0 0 0 0 0 0 0 0 0 0 0 0 0 0 0 0 0 0 0